|
Centaur D AC-29 - Orbit
|
Mountain_View;
06:42:22
| Home | Info | Passes |
|
View from above orbital plane
|
View from above satellite
|
Ground track
|
The orbit data is extracted from the following two-line orbital elements,
1 06058U 72041B 13139.13717552 -.00000010 00000-0 -26393-3 0 9147
2 06058 026.7533 049.6396 7203847 285.1297 134.4959 02.22216548331069
| Epoch (UTC): | 19 May 2013 03:17:31 |
| Eccentricity: | 0.7203847 |
| inclination: | 26.7533° |
| perigee height: | 558 km |
| apogee height: | 36297 km |
| right ascension of ascending node: | 49.6396° |
| argument of perigee: | 285.1297° |
| revolutions per day: | 2.22216548 |
| mean anomaly at epoch: | 134.4959° |
| orbit number at epoch: | 33106 |
The dashed part of the orbit path shows where the satellite is in the earth's shadow,
|
|